Miscellaneous Local Product
Issued by NWS North Platte, NE

Home | Current Version | Previous Version | Text Only | Print | Product List | Glossary On
Versions: 1 2 3 4 5 6 7 8 9 10 11 12 13 14 15 16 17 18 19 20 21 22 23 24 25 26 27 28 29 30 31 32 33 34 35 36 37 38 39 40 41 42 43 44 45 46 47 48 49 50
000
AXUS43 KLBF 011910
MISLBF


WESTERN AND NORTH CENTRAL NEBRASKA HOURLY WEATHER ROUNDUP
NATIONAL WEATHER SERVICE NORTH PLATTE NE
200 PM CDT TUE SEP 01 2015

NOTE: "FAIR" INDICATES FEW OR NO CLOUDS BELOW 12,000 FEET WITH NO
SIGNIFICANT WEATHER AND/OR OBSTRUCTIONS TO VISIBILITY.

NOTE: STATIONS NOT REPORTING VARIABLES SUCH AS SKY/WEATHER OR
PRESSURE ARE PROVIDED BY THE NEBRASKA DEPARTMENT OF
ROADS...RAWS...AND APRS NETWORKS...AND ARE NOT UNDER
NATIONAL WEATHER SERVICE QUALITY CONTROL.

...OBSERVATIONS IN AND NEAR THE EASTERN PANHANDLE OF NEBRASKA...

CITY           SKY/WX    TMP DP  RH WIND       PRES   REMARKS
PINE RIDGE     SUNNY     90  44  20 SW9       29.88F
CHADRON        SUNNY     91  46  21 SW9       29.88F
ALLIANCE       SUNNY     90  42  18 SW10      29.94F
SIDNEY         SUNNY     90  41  18 MISG      30.00F
CRESCENT LAKE    N/A     90  49  24 S6          N/A
BIG SPRINGS      N/A     89  52  27 W3          N/A
$$

...OBSERVATIONS IN NORTH CENTRAL NEBRASKA...

CITY           SKY/WX    TMP DP  RH WIND       PRES   REMARKS
VALENTINE      MOSUNNY   89  56  32 SE15G23   29.87F
THEDFORD       MOSUNNY   89  60  37 S9        29.91F
AINSWORTH      PTSUNNY   83  65  55 S12       29.91F
O`NEILL        PTSUNNY   81  70  70 CALM      29.90F
ORD            MOSUNNY   89  62  40 E3        29.88F
BROKEN BOW     SUNNY     89  61  38 NE7       29.91F
SPRINGVIEW       N/A     81  67  61 SE3         N/A
SARGENT          N/A     85  62  46 CALM        N/A
CHAMBERS         N/A     85  69  58 E3          N/A
EWING            N/A     84  70  63 S3          N/A
$$

...OBSERVATIONS IN SOUTHWEST NEBRASKA AND FAR NORTHEAST COLORADO...

CITY           SKY/WX    TMP DP  RH WIND       PRES   REMARKS
WRAY           CLOUDY    91  50  24 W3        29.99F
HOLYOKE        FAIR      90  50  25 CALM      29.98
IMPERIAL       SUNNY     88  53  30 W7        29.96F
OGALLALA       SUNNY     88  53  30 SW7       29.94F
NORTH PLATTE   MOSUNNY   87  58  37 W7        29.91F
MCCOOK         SUNNY     89  60  37 SW6       29.92F
LEXINGTON      SUNNY     87  61  40 SW5       29.92S
PAXTON           N/A     84  64  51 S3          N/A
BRADY            N/A     86  62  44 SE3         N/A
CALLAWAY         N/A     89  69  51 CALM        N/A  HX  93
$$

...OBSERVATIONS IN CENTRAL LINCOLN COUNTY AREA...

CITY           SKY/WX    TMP DP  RH WIND       PRES   REMARKS
N.P. AIRPORT   MOSUNNY   87  58  37 W7        29.91F
N.P. DOWNTOWN    N/A     86  61  43 NW3         N/A
N.P. SOUTHEAST   N/A     88  61  40 CALM        N/A
N.P. HILLCREST   N/A     85  59  41 W6          N/A
$$

...SOME OBSERVATIONS FROM AROUND THE REGION...

CITY           SKY/WX    TMP DP  RH WIND       PRES   REMARKS
DENVER         MOSUNNY   86  36  16 CALM      30.09F
LARAMIE        SUNNY     78  33  19 NW17G32   30.20F
CHEYENNE       MOSUNNY   84  35  17 W13       30.12F
SCOTTSBLUFF    SUNNY     89  50  26 VRB3      29.95F
RAPID CITY     SUNNY     80  60  50 CALM      29.86F
PIERRE         SUNNY     91  63  39 SE20G25   29.77F HX  92
WINNER         FAIR      88  60  38 SE14      29.84F
SIOUX FALLS    CLOUDY    79  70  74 SE12      29.88F
OMAHA          MOSUNNY   88  70  55 S13       29.93S HX  93
GRAND ISLAND   MOSUNNY   87  62  43 S16       29.92F
KANSAS CITY    MOSUNNY   90  69  50 S12       30.01F HX  94
WICHITA        MOSUNNY   93  63  36 S17       29.97F HX  94
HAYS           SUNNY     95  61  31 SW17      29.91F HX  95
LIBERAL        MOSUNNY   93  57  29 S20       30.00F HX  92
GOODLAND       MOSUNNY   87  54  32 SW6       29.99F
$$



USA.gov is the U.S. government's official web portal to all federal, state and local government web resources and services.